User: anonymous   Login
Location: Unspecified
(0.0000°N, 0.0000°E)
Time: 10:04:34
(UTC+00:00)
Language:

Traac - Orbit

View from above orbital plane
View from above orbital plane
View from above satellite
View from above satellite

Ground track
Ground track

The orbit data is extracted from the following two-line orbital elements,

1 00205U 61031B   18049.83059356  .00000021  00000-0 -11290-5 0  9991
2 00205  32.4395 231.8100 0102372 331.7202  27.7888 13.62397480804682
Epoch (UTC): 18 February 2018 19:56:03
Eccentricity: 0.0102372
inclination: 32.4395°
perigee height: 951 km
apogee height: 1103 km
right ascension of ascending node: 231.8100°
argument of perigee: 331.7202°
revolutions per day: 13.62397480
mean anomaly at epoch: 27.7888°
orbit number at epoch: 80468

The dashed part of the orbit path shows where the satellite is in the earth's shadow,  

DLR